Time,TemperatureF,DewpointF,PressureIn,WindDirection,WindDirectionDegrees,WindSpeedMPH,WindSpeedGustMPH,Humidity,HourlyPrecipIn,Conditions,Clouds,dailyrainin,SoftwareType,DateUTC
2013-02-24 00:00:00,75.4,67.3,29.62,WSW,248,0.0,0.0,76,0.00,,---,0.00,VWS V13.01,2013-02-24 05:00:00,
2013-02-24 00:06:00,75.4,67.3,29.61,WSW,248,0.0,0.0,76,0.00,,---,0.00,VWS V13.01,2013-02-24 05:06:00,
2013-02-24 00:10:00,75.0,66.9,29.62,SW,225,17.7,17.7,76,0.00,,---,0.00,VWS V13.01,2013-02-24 05:10:00,
2013-02-24 00:20:00,75.0,67.3,29.62,SSW,202,0.4,1.3,77,0.00,,---,0.00,VWS V13.01,2013-02-24 05:20:00,
2013-02-24 00:25:00,75.0,67.3,29.61,SSW,202,0.0,0.4,77,0.00,,---,0.00,VWS V13.01,2013-02-24 05:25:00,
2013-02-24 00:30:00,75.0,67.3,29.61,SSW,202,0.0,0.0,77,0.00,,---,0.00,VWS V13.01,2013-02-24 05:30:00,
2013-02-24 00:40:00,75.0,67.3,29.61,SSW,202,0.2,2.0,77,0.00,,---,0.00,VWS V13.01,2013-02-24 05:40:00,
2013-02-24 00:46:00,75.0,67.3,29.61,SSW,202,0.2,0.2,77,0.00,,---,0.00,VWS V13.01,2013-02-24 05:46:00,
2013-02-24 00:55:00,74.8,67.2,29.60,South,180,6.9,6.9,77,0.00,,---,0.00,VWS V13.01,2013-02-24 05:55:00,
2013-02-24 01:05:00,74.5,66.8,29.61,South,180,0.0,0.0,77,0.00,,---,0.00,VWS V13.01,2013-02-24 06:05:00,
2013-02-24 01:15:00,74.3,66.6,29.61,SSW,202,0.2,0.2,77,0.00,,---,0.00,VWS V13.01,2013-02-24 06:15:00,
2013-02-24 01:20:00,74.3,66.6,29.61,SSW,202,0.0,0.2,77,0.00,,---,0.00,VWS V13.01,2013-02-24 06:20:00,
2013-02-24 01:30:00,74.1,66.8,29.61,SSW,202,0.0,0.0,78,0.00,,---,0.00,VWS V13.01,2013-02-24 06:30:00,
2013-02-24 01:35:00,74.1,66.8,29.61,SSW,202,0.0,0.0,78,0.00,,---,0.00,VWS V13.01,2013-02-24 06:35:00,
2013-02-24 01:45:00,73.9,66.7,29.61,SW,225,0.4,0.4,78,0.00,,---,0.00,VWS V13.01,2013-02-24 06:45:00,
2013-02-24 01:55:00,73.9,66.7,29.60,SW,225,0.9,0.9,78,0.00,,---,0.00,VWS V13.01,2013-02-24 06:55:00,
2013-02-24 02:00:00,73.9,67.0,29.60,SW,225,15.4,15.4,79,0.00,,---,0.00,VWS V13.01,2013-02-24 07:00:00,
2013-02-24 02:10:00,73.8,66.8,29.60,WSW,248,0.0,15.4,79,0.00,,---,0.00,VWS V13.01,2013-02-24 07:10:00,
2013-02-24 02:15:00,73.9,67.0,29.60,WSW,248,0.0,0.0,79,0.00,,---,0.00,VWS V13.01,2013-02-24 07:15:00,
2013-02-24 02:25:00,73.9,67.4,29.60,WSW,248,0.7,2.0,80,0.00,,---,0.00,VWS V13.01,2013-02-24 07:25:00,
2013-02-24 02:35:00,73.9,67.4,29.60,SW,225,0.0,1.1,80,0.00,,---,0.00,VWS V13.01,2013-02-24 07:35:00,
2013-02-24 02:40:00,73.9,67.4,29.60,South,180,2.5,2.5,80,0.00,,---,0.00,VWS V13.01,2013-02-24 07:40:00,
2013-02-24 02:50:00,74.1,67.6,29.59,SSW,202,4.9,4.9,80,0.00,,---,0.00,VWS V13.01,2013-02-24 07:50:00,
2013-02-24 03:00:00,73.9,67.4,29.59,South,180,0.9,4.9,80,0.00,,---,0.00,VWS V13.01,2013-02-24 08:00:00,
2013-02-24 03:10:00,73.9,67.4,29.59,SW,225,4.7,4.7,80,0.00,,---,0.00,VWS V13.01,2013-02-24 08:10:00,
2013-02-24 03:15:00,73.9,67.4,29.59,WSW,248,0.9,4.7,80,0.00,,---,0.00,VWS V13.01,2013-02-24 08:15:00,
2013-02-24 03:25:00,73.8,67.2,29.58,SW,225,1.3,2.5,80,0.00,,---,0.00,VWS V13.01,2013-02-24 08:25:00,
2013-02-24 03:35:00,73.6,67.0,29.58,SW,225,1.3,3.1,80,0.00,,---,0.00,VWS V13.01,2013-02-24 08:35:00,
2013-02-24 03:45:00,73.6,67.0,29.58,SSW,202,2.5,2.5,80,0.00,,---,0.00,VWS V13.01,2013-02-24 08:45:00,
2013-02-24 03:55:00,73.6,67.0,29.58,South,180,2.0,2.0,80,0.00,,---,0.00,VWS V13.01,2013-02-24 08:55:00,
2013-02-24 04:00:00,73.6,67.0,29.58,SSW,202,0.0,3.6,80,0.00,,---,0.00,VWS V13.01,2013-02-24 09:00:00,
2013-02-24 04:10:00,73.2,66.7,29.58,SSW,202,2.2,2.9,80,0.00,,---,0.00,VWS V13.01,2013-02-24 09:10:00,
2013-02-24 04:15:00,73.2,66.7,29.58,SSW,202,2.2,2.2,80,0.00,,---,0.00,VWS V13.01,2013-02-24 09:15:00,
2013-02-24 04:25:00,73.2,66.7,29.58,SW,225,1.3,2.5,80,0.00,,---,0.00,VWS V13.01,2013-02-24 09:25:00,
2013-02-24 04:35:00,73.2,66.7,29.58,SW,225,0.2,0.2,80,0.00,,---,0.00,VWS V13.01,2013-02-24 09:35:00,
2013-02-24 04:45:00,73.0,66.5,29.58,SW,225,0.0,0.0,80,0.00,,---,0.00,VWS V13.01,2013-02-24 09:45:00,
2013-02-24 04:50:00,73.0,66.5,29.58,SSW,202,0.0,0.0,80,0.00,,---,0.00,VWS V13.01,2013-02-24 09:50:00,
2013-02-24 05:00:00,73.0,66.5,29.58,SSW,202,0.7,0.7,80,0.00,,---,0.00,VWS V13.01,2013-02-24 10:00:00,
2013-02-24 05:10:00,72.9,66.3,29.58,SSW,202,0.0,0.0,80,0.00,,---,0.00,VWS V13.01,2013-02-24 10:10:00,
2013-02-24 05:15:00,73.0,66.5,29.58,SW,225,0.0,0.0,80,0.00,,---,0.00,VWS V13.01,2013-02-24 10:15:00,
2013-02-24 05:25:00,73.0,66.9,29.58,SW,225,0.7,0.7,81,0.00,,---,0.00,VWS V13.01,2013-02-24 10:25:00,
2013-02-24 05:35:00,72.9,66.7,29.58,SW,225,1.8,4.0,81,0.00,,---,0.00,VWS V13.01,2013-02-24 10:35:00,
2013-02-24 05:45:00,72.7,66.5,29.58,South,180,0.7,0.9,81,0.00,,---,0.00,VWS V13.01,2013-02-24 10:45:00,
2013-02-24 05:55:00,72.7,66.9,29.58,SSW,202,4.3,4.3,82,0.00,,---,0.00,VWS V13.01,2013-02-24 10:55:00,
2013-02-24 06:00:00,72.7,66.9,29.58,SSW,202,4.5,4.5,82,0.00,,---,0.00,VWS V13.01,2013-02-24 11:00:00,
2013-02-24 06:10:00,72.9,67.1,29.59,West,270,0.0,0.0,82,0.00,,---,0.00,VWS V13.01,2013-02-24 11:10:00,
2013-02-24 06:20:00,72.9,67.1,29.60,WSW,248,2.9,10.5,82,0.00,,---,0.00,VWS V13.01,2013-02-24 11:20:00,
2013-02-24 06:30:00,72.7,66.9,29.60,West,270,0.0,0.0,82,0.00,,---,0.00,VWS V13.01,2013-02-24 11:30:00,
2013-02-24 06:40:00,72.7,66.9,29.60,WSW,248,0.0,0.0,82,0.00,,---,0.00,VWS V13.01,2013-02-24 11:40:00,
2013-02-24 06:45:00,72.5,66.7,29.60,West,270,0.0,1.6,82,0.00,,---,0.00,VWS V13.01,2013-02-24 11:45:00,
2013-02-24 06:55:00,72.7,66.9,29.60,WSW,248,0.0,0.0,82,0.00,,---,0.00,VWS V13.01,2013-02-24 11:55:00,
2013-02-24 07:05:00,72.7,66.9,29.60,West,270,0.0,0.0,82,0.00,,---,0.00,VWS V13.01,2013-02-24 12:05:00,
2013-02-24 07:15:00,72.7,66.9,29.60,WSW,248,0.0,10.5,82,0.00,,---,0.00,VWS V13.01,2013-02-24 12:15:00,
2013-02-24 07:25:00,72.9,67.1,29.60,WSW,248,0.0,0.7,82,0.00,,---,0.00,VWS V13.01,2013-02-24 12:25:00,
2013-02-24 07:35:00,73.0,67.2,29.60,West,270,1.3,1.3,82,0.00,,---,0.00,VWS V13.01,2013-02-24 12:35:00,
2013-02-24 07:45:00,73.2,67.4,29.60,SW,225,8.3,8.3,82,0.00,,---,0.00,VWS V13.01,2013-02-24 12:45:00,
2013-02-24 07:50:00,73.6,67.8,29.62,West,270,0.0,8.3,82,0.00,,---,0.00,VWS V13.01,2013-02-24 12:50:00,
2013-02-24 08:00:00,73.8,68.3,29.62,West,270,1.1,1.1,83,0.00,,---,0.00,VWS V13.01,2013-02-24 13:00:00,
2013-02-24 08:10:00,73.9,68.1,29.63,WSW,248,2.5,2.5,82,0.00,,---,0.00,VWS V13.01,2013-02-24 13:10:00,
2013-02-24 08:15:00,74.1,68.3,29.63,West,270,0.9,4.7,82,0.00,,---,0.00,VWS V13.01,2013-02-24 13:15:00,
2013-02-24 08:25:00,74.5,68.3,29.63,WNW,292,4.0,4.0,81,0.00,,---,0.00,VWS V13.01,2013-02-24 13:25:00,
2013-02-24 08:35:00,75.0,68.8,29.63,West,270,3.8,5.4,81,0.00,,---,0.00,VWS V13.01,2013-02-24 13:35:00,
2013-02-24 08:45:00,75.6,69.0,29.63,West,270,4.5,4.9,80,0.00,,---,0.00,VWS V13.01,2013-02-24 13:45:00,
2013-02-24 08:55:00,76.5,69.5,29.63,West,270,2.9,6.9,79,0.00,,---,0.00,VWS V13.01,2013-02-24 13:55:00,
2013-02-24 09:00:00,76.5,69.5,29.63,West,270,0.0,2.9,79,0.00,,---,0.00,VWS V13.01,2013-02-24 14:00:00,
2013-02-24 09:10:00,77.4,69.6,29.64,WSW,248,4.5,7.2,77,0.00,,---,0.00,VWS V13.01,2013-02-24 14:10:00,
2013-02-24 09:20:00,77.4,69.6,29.63,West,270,2.2,5.6,77,0.00,,---,0.00,VWS V13.01,2013-02-24 14:20:00,
2013-02-24 09:30:00,78.3,70.1,29.64,West,270,3.1,3.1,76,0.00,,---,0.00,VWS V13.01,2013-02-24 14:30:00,
2013-02-24 09:35:00,78.3,69.7,29.64,WNW,292,1.1,3.1,75,0.00,,---,0.00,VWS V13.01,2013-02-24 14:35:00,
2013-02-24 09:45:00,78.6,69.7,29.64,West,270,4.0,4.0,74,0.00,,---,0.00,VWS V13.01,2013-02-24 14:45:00,
2013-02-24 09:55:00,79.0,69.6,29.64,NNW,338,1.3,5.4,73,0.00,,---,0.00,VWS V13.01,2013-02-24 14:55:00,
2013-02-24 10:00:00,79.0,69.6,29.64,NNW,338,1.3,1.3,73,0.00,,---,0.00,VWS V13.01,2013-02-24 15:00:00,
2013-02-24 10:10:00,80.4,70.6,29.64,West,270,0.4,2.5,72,0.00,,---,0.00,VWS V13.01,2013-02-24 15:10:00,
2013-02-24 10:20:00,81.1,70.8,29.64,WNW,292,6.0,6.0,71,0.00,,---,0.00,VWS V13.01,2013-02-24 15:20:00,
2013-02-24 10:30:00,81.5,70.8,29.64,West,270,2.5,2.5,70,0.00,,---,0.00,VWS V13.01,2013-02-24 15:30:00,
2013-02-24 10:35:00,82.0,71.3,29.64,West,270,2.7,3.6,70,0.00,,---,0.00,VWS V13.01,2013-02-24 15:35:00,
2013-02-24 10:45:00,82.2,71.0,29.64,West,270,3.4,3.4,69,0.00,,---,0.00,VWS V13.01,2013-02-24 15:45:00,
2013-02-24 10:55:00,82.2,70.6,29.64,NW,315,0.0,3.1,68,0.00,,---,0.00,VWS V13.01,2013-02-24 15:55:00,
2013-02-24 11:05:00,82.2,70.2,29.63,West,270,0.0,4.0,67,0.00,,---,0.00,VWS V13.01,2013-02-24 16:05:00,
2013-02-24 11:15:00,82.6,70.1,29.63,NNW,338,0.0,1.6,66,0.00,,---,0.00,VWS V13.01,2013-02-24 16:15:00,
2013-02-24 11:20:00,83.3,70.8,29.63,West,270,2.5,2.5,66,0.00,,---,0.00,VWS V13.01,2013-02-24 16:20:00,
2013-02-24 11:30:00,84.0,71.0,29.63,WSW,248,2.5,4.9,65,0.00,,---,0.00,VWS V13.01,2013-02-24 16:30:00,
2013-02-24 11:40:00,84.2,71.2,29.62,West,270,2.9,2.9,65,0.00,,---,0.00,VWS V13.01,2013-02-24 16:40:00,
2013-02-24 11:50:00,84.9,71.4,29.62,South,180,6.7,6.7,64,0.00,,---,0.00,VWS V13.01,2013-02-24 16:50:00,
2013-02-24 12:00:00,84.6,71.5,29.61,SE,135,0.4,0.4,65,0.00,,---,0.00,VWS V13.01,2013-02-24 17:00:00,
2013-02-24 12:05:00,84.0,71.4,29.61,SE,135,4.9,4.9,66,0.00,,---,0.00,VWS V13.01,2013-02-24 17:05:00,
2013-02-24 12:15:00,84.0,71.0,29.60,SE,135,7.4,7.4,65,0.00,,---,0.00,VWS V13.01,2013-02-24 17:15:00,
2013-02-24 12:20:00,83.1,70.6,29.60,East,90,8.3,8.3,66,0.00,,---,0.00,VWS V13.01,2013-02-24 17:20:00,
2013-02-24 12:30:00,83.1,71.5,29.60,SSE,158,5.8,5.8,68,0.00,,---,0.00,VWS V13.01,2013-02-24 17:30:00,
2013-02-24 12:40:00,83.8,72.2,29.60,ESE,112,3.4,3.4,68,0.00,,---,0.00,VWS V13.01,2013-02-24 17:40:00,
2013-02-24 12:50:00,84.0,72.3,29.59,ESE,112,0.7,4.3,68,0.00,,---,0.00,VWS V13.01,2013-02-24 17:50:00,
2013-02-24 13:00:00,84.6,72.4,29.59,SSE,158,2.2,6.9,67,0.00,,---,0.00,VWS V13.01,2013-02-24 18:00:00,
2013-02-24 13:10:00,84.7,72.6,29.58,SSE,158,5.1,10.3,67,0.00,,---,0.00,VWS V13.01,2013-02-24 18:10:00,
2013-02-24 13:15:00,85.3,73.1,29.58,SE,135,5.1,10.1,67,0.00,,---,0.00,VWS V13.01,2013-02-24 18:15:00,
2013-02-24 13:25:00,84.9,72.3,29.57,ESE,112,7.6,7.8,66,0.00,,---,0.00,VWS V13.01,2013-02-24 18:25:00,
2013-02-24 13:35:00,84.7,72.6,29.57,WSW,248,9.8,11.2,67,0.00,,---,0.00,VWS V13.01,2013-02-24 18:35:00,
2013-02-24 13:45:00,84.6,72.4,29.57,ESE,112,5.6,6.3,67,0.00,,---,0.00,VWS V13.01,2013-02-24 18:45:00,
2013-02-24 13:55:00,84.7,72.1,29.56,WSW,248,9.6,13.0,66,0.00,,---,0.00,VWS V13.01,2013-02-24 18:55:00,
2013-02-24 14:05:00,84.7,71.7,29.56,WSW,248,3.8,9.6,65,0.00,,---,0.00,VWS V13.01,2013-02-24 19:05:00,
2013-02-24 14:15:00,84.7,70.8,29.56,WSW,248,5.4,7.8,63,0.00,,---,0.00,VWS V13.01,2013-02-24 19:15:00,
2013-02-24 14:25:00,85.1,71.1,29.56,WSW,248,3.8,11.4,63,0.00,,---,0.00,VWS V13.01,2013-02-24 19:25:00,
2013-02-24 14:35:00,85.1,71.6,29.55,WSW,248,10.3,10.3,64,0.00,,---,0.00,VWS V13.01,2013-02-24 19:35:00,
2013-02-24 14:40:00,84.6,70.6,29.55,WSW,248,6.5,10.3,63,0.00,,---,0.00,VWS V13.01,2013-02-24 19:40:00,
2013-02-24 14:45:00,84.4,70.4,29.55,WSW,248,3.6,6.5,63,0.00,,---,0.00,VWS V13.01,2013-02-24 19:45:00,
2013-02-24 14:55:00,84.7,70.8,29.55,WSW,248,6.0,6.0,63,0.00,,---,0.00,VWS V13.01,2013-02-24 19:55:00,
2013-02-24 15:00:00,84.7,70.8,29.55,WSW,248,6.0,6.0,63,0.00,,---,0.00,VWS V13.01,2013-02-24 20:00:00,
2013-02-24 15:10:00,84.7,71.2,29.55,WSW,248,0.9,7.6,64,0.00,,---,0.00,VWS V13.01,2013-02-24 20:10:00,
2013-02-24 15:20:00,84.4,71.3,29.55,SSW,202,6.5,6.5,65,0.00,,---,0.00,VWS V13.01,2013-02-24 20:20:00,
2013-02-24 15:25:00,84.4,70.9,29.55,WSW,248,5.8,8.1,64,0.00,,---,0.00,VWS V13.01,2013-02-24 20:25:00,
2013-02-24 15:35:00,84.0,71.0,29.55,WSW,248,7.2,8.3,65,0.00,,---,0.00,VWS V13.01,2013-02-24 20:35:00,
2013-02-24 15:40:00,84.4,70.4,29.55,WSW,248,11.6,11.6,63,0.00,,---,0.00,VWS V13.01,2013-02-24 20:40:00,
2013-02-24 15:50:00,84.4,70.4,29.55,WSW,248,6.3,7.6,63,0.00,,---,0.00,VWS V13.01,2013-02-24 20:50:00,
2013-02-24 16:00:00,84.4,70.4,29.55,SSE,158,11.2,11.2,63,0.00,,---,0.00,VWS V13.01,2013-02-24 21:00:00,
2013-02-24 16:10:00,83.8,70.4,29.55,WSW,248,3.8,6.7,64,0.00,,---,0.00,VWS V13.01,2013-02-24 21:10:00,
2013-02-24 16:15:00,83.7,70.2,29.55,WSW,248,5.8,9.6,64,0.00,,---,0.00,VWS V13.01,2013-02-24 21:15:00,
2013-02-24 16:25:00,83.7,70.2,29.55,WSW,248,9.8,10.5,64,0.00,,---,0.00,VWS V13.01,2013-02-24 21:25:00,
2013-02-24 16:30:00,83.8,70.8,29.55,WSW,248,11.6,11.6,65,0.00,,---,0.00,VWS V13.01,2013-02-24 21:30:00,
2013-02-24 16:40:00,83.7,70.7,29.55,SSE,158,8.3,9.0,65,0.00,,---,0.00,VWS V13.01,2013-02-24 21:40:00,
2013-02-24 16:45:00,82.9,70.4,29.56,SSE,158,13.6,13.6,66,0.00,,---,0.00,VWS V13.01,2013-02-24 21:45:00,
2013-02-24 16:55:00,82.0,70.4,29.56,WSW,248,7.6,8.7,68,0.00,,---,0.00,VWS V13.01,2013-02-24 21:55:00,
2013-02-24 17:00:00,82.0,70.9,29.55,WSW,248,10.3,10.3,69,0.00,,---,0.00,VWS V13.01,2013-02-24 22:00:00,
2013-02-24 17:05:00,82.2,71.0,29.55,WSW,248,1.6,10.3,69,0.00,,---,0.00,VWS V13.01,2013-02-24 22:05:00,
2013-02-24 17:15:00,82.2,70.2,29.56,South,180,6.5,9.8,67,0.00,,---,0.00,VWS V13.01,2013-02-24 22:15:00,
2013-02-24 17:20:00,82.0,70.0,29.56,South,180,6.3,8.5,67,0.00,,---,0.00,VWS V13.01,2013-02-24 22:20:00,
2013-02-24 17:25:00,81.7,70.1,29.56,SE,135,3.6,6.3,68,0.00,,---,0.00,VWS V13.01,2013-02-24 22:25:00,
2013-02-24 17:35:00,81.0,69.4,29.56,SE,135,0.7,6.9,68,0.00,,---,0.00,VWS V13.01,2013-02-24 22:35:00,
2013-02-24 17:40:00,80.8,70.1,29.56,SSE,158,0.0,0.7,70,0.00,,---,0.00,VWS V13.01,2013-02-24 22:40:00,
2013-02-24 17:50:00,80.4,70.2,29.56,SSE,158,6.3,6.3,71,0.00,,---,0.00,VWS V13.01,2013-02-24 22:50:00,
2013-02-24 17:55:00,79.9,70.1,29.56,South,180,6.7,6.7,72,0.00,,---,0.00,VWS V13.01,2013-02-24 22:55:00,
2013-02-24 18:05:00,79.5,70.1,29.56,South,180,4.5,7.2,73,0.00,,---,0.00,VWS V13.01,2013-02-24 23:05:00,
2013-02-24 18:15:00,79.3,70.3,29.55,SSW,202,7.2,7.2,74,0.00,,---,0.00,VWS V13.01,2013-02-24 23:15:00,
2013-02-24 18:25:00,79.0,70.0,29.55,SSW,202,7.4,7.4,74,0.00,,---,0.00,VWS V13.01,2013-02-24 23:25:00,
2013-02-24 18:30:00,78.6,70.0,29.55,SSE,158,6.9,7.4,75,0.00,,---,0.00,VWS V13.01,2013-02-24 23:30:00,
2013-02-24 18:40:00,78.6,70.0,29.55,SSE,158,0.4,6.9,75,0.00,,---,0.00,VWS V13.01,2013-02-24 23:40:00,
2013-02-24 18:45:00,78.6,70.0,29.55,SSE,158,8.7,8.7,75,0.00,,---,0.00,VWS V13.01,2013-02-24 23:45:00,
2013-02-24 18:55:00,78.4,69.9,29.55,SSW,202,8.7,8.7,75,0.00,,---,0.00,VWS V13.01,2013-02-24 23:55:00,
2013-02-24 19:05:00,78.3,69.7,29.56,South,180,3.1,5.8,75,0.00,,---,0.00,VWS V13.01,2013-02-25 00:05:00,
2013-02-24 19:10:00,78.1,69.5,29.56,South,180,6.5,6.5,75,0.00,,---,0.00,VWS V13.01,2013-02-25 00:10:00,
2013-02-24 19:15:00,78.1,69.5,29.57,South,180,7.6,7.6,75,0.00,,---,0.00,VWS V13.01,2013-02-25 00:15:00,
2013-02-24 19:25:00,78.1,69.9,29.57,SSW,202,1.8,6.9,76,0.00,,---,0.00,VWS V13.01,2013-02-25 00:25:00,
2013-02-24 19:35:00,78.1,69.9,29.56,SSE,158,4.9,4.9,76,0.00,,---,0.00,VWS V13.01,2013-02-25 00:35:00,
2013-02-24 19:45:00,78.1,69.9,29.57,South,180,3.1,8.7,76,0.00,,---,0.00,VWS V13.01,2013-02-25 00:45:00,
2013-02-24 19:55:00,77.9,69.7,29.57,South,180,7.8,7.8,76,0.00,,---,0.00,VWS V13.01,2013-02-25 00:55:00,
2013-02-24 20:05:00,77.7,69.2,29.57,South,180,6.7,6.7,75,0.00,,---,0.00,VWS V13.01,2013-02-25 01:05:00,
2013-02-24 20:15:00,77.7,69.2,29.58,South,180,2.9,2.9,75,0.00,,---,0.00,VWS V13.01,2013-02-25 01:15:00,
2013-02-24 20:25:00,77.7,68.8,29.58,SSW,202,8.3,8.3,74,0.00,,---,0.00,VWS V13.01,2013-02-25 01:25:00,
2013-02-24 20:30:00,77.5,68.6,29.58,SSE,158,4.5,8.3,74,0.00,,---,0.00,VWS V13.01,2013-02-25 01:30:00,
2013-02-24 20:40:00,77.5,68.6,29.58,SSE,158,3.8,3.8,74,0.00,,---,0.00,VWS V13.01,2013-02-25 01:40:00,
2013-02-24 20:50:00,77.5,68.6,29.58,South,180,4.9,4.9,74,0.00,,---,0.00,VWS V13.01,2013-02-25 01:50:00,
2013-02-24 21:00:00,77.5,68.6,29.58,SSW,202,4.0,4.0,74,0.00,,---,0.00,VWS V13.01,2013-02-25 02:00:00,
2013-02-24 21:05:00,77.4,68.4,29.58,SSE,158,4.3,4.3,74,0.00,,---,0.00,VWS V13.01,2013-02-25 02:05:00,
2013-02-24 21:15:00,77.4,68.4,29.58,South,180,2.0,4.7,74,0.00,,---,0.00,VWS V13.01,2013-02-25 02:15:00,
2013-02-24 21:25:00,77.2,68.3,29.58,SW,225,0.0,1.3,74,0.00,,---,0.00,VWS V13.01,2013-02-25 02:25:00,
2013-02-24 21:30:00,77.2,68.3,29.58,SW,225,0.0,1.6,74,0.00,,---,0.00,VWS V13.01,2013-02-25 02:30:00,
2013-02-24 21:40:00,76.8,67.9,29.59,WSW,248,0.0,0.9,74,0.00,,---,0.00,VWS V13.01,2013-02-25 02:40:00,
2013-02-24 21:50:00,76.8,67.9,29.59,SW,225,4.9,4.9,74,0.00,,---,0.00,VWS V13.01,2013-02-25 02:50:00,
2013-02-24 22:00:00,76.6,67.7,29.59,SW,225,0.0,3.6,74,0.00,,---,0.00,VWS V13.01,2013-02-25 03:00:00,
2013-02-24 22:10:00,76.6,67.7,29.59,SW,225,0.0,0.0,74,0.00,,---,0.00,VWS V13.01,2013-02-25 03:10:00,
2013-02-24 22:15:00,76.6,67.7,29.59,SW,225,0.0,0.0,74,0.00,,---,0.00,VWS V13.01,2013-02-25 03:15:00,
2013-02-24 22:25:00,76.3,67.4,29.59,SW,225,0.0,0.0,74,0.00,,---,0.00,VWS V13.01,2013-02-25 03:25:00,
2013-02-24 22:30:00,76.3,67.4,29.59,SW,225,0.0,0.0,74,0.00,,---,0.00,VWS V13.01,2013-02-25 03:30:00,
2013-02-24 22:40:00,76.1,67.2,29.59,SW,225,0.0,0.0,74,0.00,,---,0.00,VWS V13.01,2013-02-25 03:40:00,
2013-02-24 22:50:00,76.1,67.2,29.59,SW,225,0.0,0.0,74,0.00,,---,0.00,VWS V13.01,2013-02-25 03:50:00,
2013-02-24 23:00:00,75.7,66.9,29.58,SW,225,0.0,0.0,74,0.00,,---,0.00,VWS V13.01,2013-02-25 04:00:00,
2013-02-24 23:10:00,75.7,66.9,29.58,West,270,0.0,0.0,74,0.00,,---,0.00,VWS V13.01,2013-02-25 04:10:00,
2013-02-24 23:15:00,75.6,66.7,29.57,West,270,0.0,0.0,74,0.00,,---,0.00,VWS V13.01,2013-02-25 04:15:00,
2013-02-24 23:25:00,75.6,66.7,29.57,West,270,0.0,10.7,74,0.00,,---,0.00,VWS V13.01,2013-02-25 04:25:00,
2013-02-24 23:30:00,75.4,66.5,29.57,West,270,0.0,0.0,74,0.00,,---,0.00,VWS V13.01,2013-02-25 04:30:00,
2013-02-24 23:35:00,75.4,66.5,29.57,West,270,0.0,0.0,74,0.00,,---,0.00,VWS V13.01,2013-02-25 04:35:00,
2013-02-24 23:45:00,75.0,66.2,29.56,West,270,0.0,0.0,74,0.00,,---,0.00,VWS V13.01,2013-02-25 04:45:00,
2013-02-24 23:50:00,75.0,66.2,29.56,West,270,0.0,0.0,74,0.00,,---,0.00,VWS V13.01,2013-02-25 04:50:00,